EW0284 Weather Reports


time (UTC)temp
F
wind
direction
speed
knots
gust
knots
rain 1hr
in
rain 24hr
in
rain mn
in
humidity
%
barometer
mb
20220811230109 85 330 0.0 8.7 0.00 0.02 0.01 58 1015.5
20220811224553 85 337 0.9 10.4 0.00 0.02 0.01 56 1015.6
20220811223005 86 321 2.6 8.7 0.00 0.02 0.01 54 1015.6
20220811221510 84 326 2.6 13.9 0.00 0.02 0.01 57 1015.7
20220811220108 86 327 0.0 10.4 0.00 0.02 0.01 54 1015.8
20220811214545 86 329 0.9 13.9 0.00 0.02 0.01 54 1015.8
20220811213118 86 345 0.0 10.4 0.00 0.02 0.01 56 1015.7
20220811211543 86 344 0.0 12.2 0.00 0.02 0.01 54 1015.7
20220811210059 86 340 1.7 10.4 0.00 0.02 0.01 53 1015.9
20220811204521 85 322 2.6 13.9 0.00 0.02 0.01 52 1016.1
20220811203036 86 317 1.7 10.4 0.00 0.02 0.01 51 1016.4
20220811201513 86 337 0.9 7.0 0.00 0.02 0.01 49 1016.3
20220811200044 85 309 1.7 10.4 0.00 0.06 0.01 51 1016.5
20220811194510 86 321 2.6 10.4 0.00 0.06 0.01 50 1016.6
20220811193029 87 11 0.0 2.6 0.00 0.06 0.01 53 1016.7
20220811191524 85 58 1.7 13.0 0.00 0.06 0.01 50 1016.8
20220811184608 86 315 0.0 1.7 0.00 0.28 0.01 54 1017.2
20220811183053 85 302 0.9 12.2 0.00 0.28 0.01 55 1017.3
20220811181534 84 312 0.9 7.0 0.00 0.28 0.01 53 1017.4
20220811180103 83 311 0.0 8.7 0.00 0.28 0.01 55 1017.6
20220811174540 84 345 0.9 12.2 0.00 0.31 0.01 56 1017.7
20220811173042 84 344 0.0 3.5 0.00 0.31 0.01 53 1017.9
20220811171525 82 317 0.0 5.2 0.00 0.31 0.01 58 1017.9
20220811170055 82 319 0.0 8.7 0.00 0.31 0.01 56 1018.1
20220811164530 81 321 0.0 10.4 0.00 0.31 0.01 61 1018.1
20220811163048 81 316 1.7 10.4 0.00 0.31 0.01 61 1018.1
20220811161534 79 319 0.9 10.4 0.00 0.31 0.01 63 1018.3
20220811160131 79 308 2.6 8.7 0.00 0.31 0.01 65 1018.4
20220811154519 79 327 0.0 13.9 0.01 0.31 0.01 64 1018.4
20220811153006 80 313 1.7 8.7 0.01 0.31 0.01 62 1018.5
20220811151552 80 10 0.9 5.2 0.01 0.31 0.01 63 1018.4
20220811150110 80 331 0.0 3.5 0.01 0.31 0.01 64 1018.5
20220811144554 78 333 0.0 4.3 0.00 0.30 0.00 65 1018.5
20220811143025 77 320 0.0 3.5 0.00 0.30 0.00 67 1018.4
20220811141605 77 325 0.0 5.2 0.00 0.30 0.00 68 1018.4
20220811140016 78 80 0.0 0.0 0.00 0.30 0.00 76 1018.3
20220811134537 75 80 0.0 0.0 0.00 0.30 0.00 81 1018.4
20220811133058 74 80 0.0 0.0 0.00 0.30 0.00 86 1018.2
20220811131526 73 80 0.0 0.0 0.00 0.30 0.00 88 1018.2
20220811130058 72 80 0.0 0.0 0.00 0.30 0.00 89 1018.2
20220811124518 70 80 0.0 0.0 0.00 0.30 0.00 91 1018.1
20220811123105 70 80 0.0 0.0 0.00 0.30 0.00 92 1018.1
20220811121554 67 80 0.0 0.0 0.00 0.30 0.00 94 1017.9
20220811120023 67 80 0.0 0.0 0.00 0.30 0.00 94 1017.9
20220811114610 66 80 0.0 0.0 0.00 0.30 0.00 95 1017.9
20220811113041 65 80 0.0 0.0 0.00 0.30 0.00 94 1017.8
20220811111521 65 80 0.0 0.0 0.00 0.30 0.00 95 1017.7
20220811110055 65 80 0.0 0.0 0.00 0.30 0.00 94 1017.6
20220811104507 65 80 0.0 0.0 0.00 0.30 0.00 94 1017.5
20220811103045 65 80 0.0 0.0 0.00 0.30 0.00 94 1017.4
20220811101534 65 80 0.0 0.0 0.00 0.30 0.00 94 1017.2
20220811100027 65 80 0.0 0.0 0.00 0.30 0.00 94 1017.3
20220811094543 66 80 0.0 0.0 0.00 0.30 0.00 94 1017.3
20220811093111 66 80 0.0 0.0 0.00 0.30 0.00 94 1017.4
20220811091546 67 80 0.0 0.0 0.00 0.30 0.00 94 1017.4
20220811090100 67 80 0.0 0.0 0.00 0.30 0.00 94 1017.7
20220811084518 67 80 0.0 0.0 0.00 0.30 0.00 94 1017.6
20220811083036 67 80 0.0 0.0 0.00 0.30 0.00 94 1017.5
20220811081502 67 80 0.0 0.0 0.00 0.30 0.00 94 1017.4
20220811080046 68 80 0.0 0.0 0.00 0.30 0.00 94 1017.5
20220811074505 68 80 0.0 0.0 0.00 0.30 0.00 94 1017.5
20220811073117 68 80 0.0 0.0 0.00 0.30 0.00 94 1017.4
20220811071507 69 80 0.0 0.0 0.00 0.30 0.00 94 1017.4
20220811070031 69 80 0.0 0.0 0.00 0.30 0.00 93 1017.5
20220811064638 70 80 0.0 0.0 0.00 0.30 0.00 94 1017.4
20220811063003 70 80 0.0 0.0 0.00 0.30 0.00 94 1017.3
20220811061545 70 80 0.0 0.0 0.00 0.30 0.00 93 1017.4
20220811060107 70 80 0.0 0.0 0.00 0.30 0.00 94 1017.3
20220811054546 71 80 0.0 0.0 0.00 0.30 0.00 93 1017.3
20220811053110 71 80 0.0 0.0 0.00 0.30 0.00 93 1017.1
20220811051529 72 80 0.0 0.0 0.00 0.30 0.00 93 1017.3
20220811050100 72 80 0.0 0.0 0.00 0.30 0.00 93 1017.3
20220811044506 73 80 0.0 0.0 0.00 0.30 0.00 93 1017.3
20220811043026 73 80 0.0 0.0 0.00 0.30 0.00 93 1017.3
20220811041511 74 80 0.0 0.0 0.00 0.30 0.00 92 1017.1
20220811040030 73 80 0.0 0.0 0.00 0.30 0.30 93 1017.1
20220811034604 73 80 0.0 0.0 0.00 0.30 0.30 92 1017.1
20220811033011 74 80 0.0 0.0 0.00 0.30 0.30 92 1017.2
20220811030106 75 80 0.0 0.0 0.00 0.30 0.30 90 1017.5
20220811024535 75 80 0.0 0.0 0.00 0.30 0.30 90 1017.6
20220811023140 75 80 0.0 0.0 0.00 0.30 0.30 91 1017.6
20220811021521 76 80 0.0 0.0 0.00 0.30 0.30 90 1017.5
20220811020036 76 80 0.0 0.9 0.00 0.30 0.30 90 1017.2
20220811014557 77 80 0.0 0.0 0.01 0.30 0.30 90 1016.9
20220811013009 77 80 0.0 0.0 0.01 0.30 0.30 90 1016.8
20220811011605 77 80 0.0 0.0 0.01 0.30 0.30 89 1016.7
20220811010038 77 80 0.0 0.0 0.01 0.30 0.30 88 1016.6
20220811004552 79 80 0.0 0.0 0.00 0.28 0.28 87 1016.5
20220811003005 80 80 0.0 0.0 0.00 0.28 0.28 84 1016.4
20220811001540 80 80 0.0 0.0 0.00 0.28 0.28 83 1016.4
20220811000107 80 80 0.0 2.6 0.00 0.28 0.28 83 1016.3
20220810234528 82 80 0.0 6.1 0.00 0.28 0.28 80 1016.2
20220810233103 82 74 0.0 0.0 0.00 0.28 0.28 82 1016.2
20220810231519 81 74 0.0 0.9 0.00 0.28 0.28 81 1016.2